Regional Weather Roundup
Issued by NWS Goodland, KS

Home | Current Version | Previous Version | Text Only | Print | Product List | Glossary On
Versions: 1 2 3 4 5 6 7 8 9 10 11 12 13 14 15 16 17 18 19 20 21 22 23 24 25 26 27 28 29 30 31 32 33 34 35 36 37 38 39 40 41 42 43 44 45 46 47 48 49 50
455
ASUS43 KGLD 052208
RWRGLD

GOODLAND FORECAST AREA HOURLY WEATHER ROUNDUP
NATIONAL WEATHER SERVICE GOODLAND KS
400 PM MDT THU MAY 05 2016

...OFFICIAL OBSERVATIONS...

CITY           SKY/WX    TMP DP  RH WIND       PRES   REMARKS
GOODLAND KS    MOSUNNY   78  41  26 SE14      30.03F
HILL CITY KS   SUNNY     81  46  29 S13       30.03F
IMPERIAL NEB   CLOUDY    82  41  23 S15G26    30.00F
MCCOOK NEB     SUNNY     79  49  34 S15       30.00F
AKRON CO       CLOUDY    81  36  19 S14G23    30.03F
BURLINGTON CO  SUNNY     82  34  17 SE17      30.04F
LIMON CO       SUNNY     76  34  21 SE9       30.08F
$$

...UNOFFICIAL OBSERVATIONS...

CITY           SKY/WX    TMP DP  RH WIND       PRES   REMARKS
COLBY KS       SUNNY     79  54  41 SE13      30.04F
LENORA KS        N/A     79  32  18 MISG        N/A
NORTON KS      SUNNY     79  37  22 SE10      30.02S
SHARON SPRINGS   N/A     83  47  28 SE14G22     N/A
TRIBUNE KS     SUNNY     84  43  23 SE17      30.04
KIT CARSON CO    N/A     80  40  24 MISG        N/A
YUMA CO          N/A     77  44  30 SE13        N/A
$$




USA.gov is the U.S. government's official web portal to all federal, state and local government web resources and services.